Home   Weather   Kirkenes   Past weeks
Flag for Norway

Past Weather in Kirkenes, Norway — Yesterday and Last 2 Weeks

Now
26 °F

Chilly.


Feels Like: 14 °F
Forecast: 23 / 19 °F
Wind: 16 mph from Northwest

Location: Kirkenes Lufthavn

Current Time: Mar 28, 2020 at 1:52:38 pm

Latest Report: Mar 28, 2020 at 1:00 pm


Visibility: N/A

Pressure: 29.38 "Hg

Humidity: 87%

Dew Point: 23 °F

Location of KirkenesLocation

Past Weather in Kirkenes — Graph

°F

Kirkenes Temperature Yesterday

Maximum temperature yesterday: 37 °F (at 4:00 pm)
Minimum temperature yesterday: 29 °F (at 11:00 pm)
Average temperature yesterday: 34 °F

High & Low Weather Summary for the Past Weeks

 TemperatureHumidityPressure
High40 °F (Mar 24, 5:00 pm)97% (Mar 28, 8:00 am)30.26 "Hg (Mar 28, 8:00 am)
Low6 °F (Mar 14, 10:00 pm)59% (Mar 13, 10:00 pm)28.97 "Hg (Mar 15, 8:00 am)
Average26 °F77%29.62 "Hg
* Reported Mar 13 12:00 pm — Mar 28 12:00 pm, Kirkenes. Weather by CustomWeather, © 2020

Note: Actual official high and low records may vary slightly from our data, if they occured in-between our weather recording intervals... More about our weather records

Kirkenes Weather History for the Previous 24 Hours

Scroll right to see more
 ConditionsComfort  
Time TempWeatherWind HumidityBarometerVisibility
12:00 pm
Sat, Mar 28
27 °FChilly.16 mph95%29.32 "HgN/A
11:00 am29 °FChilly.14 mph96%29.26 "HgN/A
10:00 am28 °FChilly.7 mph93%29.26 "HgN/A
9:00 am30 °FChilly.7 mph97%29.26 "HgN/A
8:00 am28 °FChilly.6 mph97%29.26 "HgN/A
7:00 am27 °FChilly.8 mph96%29.32 "HgN/A
6:00 am26 °FChilly.8 mph96%29.35 "HgN/A
5:00 am24 °FCold.3 mph90%29.41 "HgN/A
4:00 am23 °FCold.6 mph90%29.47 "HgN/A
3:00 am24 °FCold.7 mph89%29.54 "HgN/A
2:00 am24 °FCold.8 mph85%29.58 "HgN/A
1:00 am26 °FChilly.5 mph75%29.62 "HgN/A
12:00 am27 °FChilly.8 mph76%29.65 "HgN/A
11:00 pm
Fri, Mar 27
29 °FChilly.8 mph76%29.67 "HgN/A
10:00 pm30 °FChilly.6 mph77%29.69 "HgN/A
9:00 pm31 °FChilly.8 mph81%29.69 "HgN/A
8:00 pm33 °FChilly.9 mph81%29.70 "HgN/A
7:00 pm34 °FChilly.9 mph91%29.69 "HgN/A
6:00 pm37 °FChilly.9 mph68%29.70 "HgN/A
5:00 pm36 °FChilly.8 mph65%29.72 "HgN/A
4:00 pm37 °FChilly.8 mph64%29.74 "HgN/A
3:00 pm36 °FChilly.5 mph65%29.78 "HgN/A
2:00 pm36 °FChilly.8 mph64%29.80 "HgN/A
1:00 pm36 °FChilly.9 mph67%29.82 "HgN/A
Weather by CustomWeather, © 2020

See weather overview

Advertising